This is the latest recevied weather packets stored in our database for station/object K2ATL. If no packets are shown the sender has not sent any weather packets the latest 10 day(s).
| Time | Temp. | Humidity | Pressure | Rain* | Wind** | Luminosity | Snow |
|---|---|---|---|---|---|---|---|
| 1777584205 | 15.56° C | 55% | 1097 hPa | 0 mm | - | 246 W/m² | - |
| 1777583904 | 16.11° C | 56% | 1097.1 hPa | 0 mm | - | 241 W/m² | - |
| 1777583600 | 16.67° C | 55% | 1097.3 hPa | 0 mm | - | 212 W/m² | - |
| 1777583298 | 15.56° C | 54% | 1097 hPa | 0 mm | - | 429 W/m² | - |
| 1777582994 | 15.56° C | 55% | 1096.8 hPa | 0 mm | - | 412 W/m² | - |
| 1777582692 | 15.56° C | 54% | 1096.9 hPa | 0 mm | - | 317 W/m² | - |
| 1777582387 | 16.67° C | 53% | 1096.5 hPa | 0 mm | - | 336 W/m² | - |
| 1777582085 | 16.11° C | 55% | 1096.5 hPa | 0 mm | - | 338 W/m² | - |
| 1777581785 | 16.11° C | 54% | 1096.8 hPa | 0 mm | - | 346 W/m² | - |
| 1777581483 | 16.11° C | 51% | 1096.8 hPa | 0 mm | - | 401 W/m² | - |
| 1777581179 | 16.67° C | 53% | 1096.9 hPa | 0 mm | - | 377 W/m² | - |
| 1777580874 | 16.11° C | 54% | 1097.1 hPa | 0 mm | - | 424 W/m² | - |
| 1777580569 | 16.11° C | 51% | 1097.1 hPa | 0 mm | - | 432 W/m² | - |
| 1777580264 | 16.67° C | 52% | 1097 hPa | 0 mm | - | 374 W/m² | - |
| 1777579962 | 16.67° C | 52% | 1097.1 hPa | 0 mm | - | 362 W/m² | - |
| 1777579657 | 16.67° C | 55% | 1097.2 hPa | 0 mm | - | 401 W/m² | - |
| 1777579356 | 17.22° C | 52% | 1097.2 hPa | 0 mm | - | 350 W/m² | - |
| 1777579051 | 16.11° C | 57% | 1097.1 hPa | 0 mm | - | 450 W/m² | - |
| 1777578747 | 15.56° C | 52% | 1097.2 hPa | 0 mm | - | 438 W/m² | - |
| 1777578446 | 16.67° C | 52% | 1097.2 hPa | 0 mm | - | 417 W/m² | - |
| 1777578142 | 16.67° C | 48% | 1097.2 hPa | 0 mm | - | 492 W/m² | - |
| 1777577838 | 16.11° C | 55% | 1097.3 hPa | 0 mm | - | 487 W/m² | - |
| 1777577534 | 16.67° C | 49% | 1097.5 hPa | 0 mm | - | 418 W/m² | - |
| 1777577231 | 16.67° C | 50% | 1097.3 hPa | 0 mm | - | 426 W/m² | - |
| 1777576927 | 16.67° C | 48% | 1097.3 hPa | 0 mm | - | 540 W/m² | - |
* Rain latest hour (hover to see other rain measurements)
** Current wind speed in m/s (hover to see current wind gust speed)